Theta_e
311 312 312 312 313 313 314 315 316 317 318 318 316 319 318 316 318 317 316 316 315 315 315 318 319 321 321 321 323 320 325 325 327 334 332 335 338 337 342 341 340 335 335 338 336 336 337 336 336 332 330 333 336 339
311 311 311 311 312 313 313 314 315 316 318 319 317 318 317 316 317 317 315 315 316 313 316 319 321 322 322 321 319 320 326 327 326 330 329 333 340 334 333 344 336 337 333 333 334 336 331 335 334 332 332 332 333 341
310 310 309 310 311 312 313 314 315 316 317 318 318 317 318 316 316 318 316 316 315 313 316 315 320 321 322 322 322 323 319 325 327 322 326 328 336 330 336 335 338 334 330 334 332 332 332 332 332 332 334 334 335 336
309 309 309 309 310 311 313 314 315 316 317 317 318 317 317 316 316 318 316 315 315 311 319 318 320 320 323 322 322 322 319 322 320 319 323 327 330 327 332 331 334 332 331 331 330 329 329 329 330 330 334 334 336 338
308 307 308 309 310 311 312 314 315 316 317 317 318 317 317 316 315 318 317 316 316 315 319 319 316 319 319 320 321 321 321 321 322 326 325 326 324 329 327 329 331 329 330 332 331 329 329 330 331 333 335 336 337 338
307 307 308 309 309 311 312 313 315 316 317 317 317 316 316 315 317 317 312 314 315 315 314 320 315 316 319 318 319 319 320 319 321 324 325 325 324 326 330 330 328 328 326 325 328 328 330 330 329 331 336 336 336 335
307 308 308 309 309 310 312 313 314 315 316 317 317 317 316 315 317 314 315 314 313 314 314 318 319 318 320 318 314 315 319 318 320 321 323 325 331 327 328 331 328 325 327 328 326 330 331 331 332 333 335 338 335 339
307 307 308 309 310 310 311 313 313 314 315 315 315 315 314 316 316 316 317 316 315 314 311 318 319 319 319 320 321 314 317 317 318 320 322 323 327 327 334 330 329 329 328 326 328 327 327 331 332 333 336 337 338 340
307 307 310 310 310 311 311 313 313 314 314 314 314 315 315 315 313 315 316 316 315 313 316 316 320 326 317 318 317 319 317 321 317 323 322 325 326 332 331 329 328 328 330 331 327 328 328 329 330 330 334 337 339 338
307 309 310 310 311 311 312 313 313 314 314 314 315 314 318 315 316 315 315 313 313 312 311 315 314 322 317 317 321 322 319 323 326 324 321 325 324 324 324 324 323 324 328 328 332 332 329 330 330 330 332 336 338 336
307 309 311 312 312 312 313 313 313 314 314 315 315 317 317 315 315 316 319 319 316 318 314 314 315 318 315 319 319 320 324 322 328 327 328 326 328 328 330 331 331 329 323 327 328 327 327 329 330 331 335 339 338 336
306 307 309 311 313 313 314 314 314 314 314 315 315 316 315 316 319 322 323 320 320 324 320 318 317 314 315 314 320 322 329 326 331 325 328 331 325 332 330 330 331 327 324 325 326 327 326 328 327 331 336 338 337 335
304 305 306 308 310 313 314 314 314 314 315 314 315 318 321 322 325 326 328 326 327 325 322 320 321 316 315 316 320 325 332 332 324 330 334 329 336 331 328 329 328 332 328 325 326 326 326 327 327 334 335 336 333 333
304 304 304 305 307 309 310 311 313 314 314 316 319 322 323 325 326 324 324 325 324 321 321 321 321 319 316 321 322 329 328 327 331 331 332 329 331 329 328 327 327 329 331 332 330 327 326 326 327 329 336 336 334 332
304 304 304 303 305 306 308 310 311 312 312 318 318 323 323 320 318 320 319 319 319 319 321 323 323 321 323 325 323 325 328 330 331 329 329 328 325 324 325 325 327 327 327 328 330 330 327 327 327 330 332 333 332 329
303 304 304 303 304 305 306 308 309 311 313 317 318 320 317 318 320 320 320 321 319 319 321 321 328 327 329 326 331 329 329 333 333 329 327 324 324 322 322 324 325 326 325 326 328 330 329 329 328 328 329 329 328 327
303 305 304 303 304 306 307 308 310 313 316 317 317 315 317 318 320 320 318 320 317 322 328 323 328 332 325 328 331 331 332 329 327 326 322 321 321 321 320 323 326 326 328 328 328 330 327 327 327 327 327 327 326 325
303 303 303 303 305 307 308 309 311 313 315 314 315 314 315 316 318 317 316 315 317 320 324 327 323 328 330 331 329 325 326 324 323 323 322 322 321 319 319 319 322 324 326 326 327 331 329 325 325 326 325 324 323 323
301 303 302 302 304 304 308 309 309 313 314 312 313 313 313 313 313 315 315 315 315 315 319 323 326 324 325 323 324 323 323 324 323 321 320 319 318 318 319 322 324 324 325 327 329 331 330 327 327 326 325 324 324 322
299 302 300 300 302 304 309 311 309 310 312 311 310 312 312 313 313 313 314 315 314 317 318 322 322 319 320 321 320 321 320 319 321 323 323 321 319 319 321 323 324 325 325 326 329 330 328 328 328 327 326 325 324 322
302 302 303 300 302 302 305 309 312 310 311 311 310 310 311 309 312 313 314 313 316 317 318 315 316 317 315 315 319 319 319 319 321 322 323 323 321 320 321 326 329 328 325 327 330 328 329 329 328 328 326 325 325 322
303 304 303 302 303 306 307 307 309 309 308 308 308 308 310 311 310 312 311 312 312 314 314 313 313 314 313 314 314 316 318 320 321 321 320 319 323 323 324 326 327 330 328 330 332 331 330 331 330 328 327 326 325 323
302 302 302 304 307 304 305 303 309 307 309 308 307 309 310 311 310 308 311 310 311 310 311 311 311 312 312 313 312 311 314 316 316 317 319 321 322 323 323 323 326 328 328 329 330 331 331 331 331 328 327 326 326 323
301 301 304 304 303 302 302 304 305 306 306 307 308 309 309 308 306 309 311 310 309 307 309 310 309 311 309 310 311 312 313 314 315 317 320 321 319 318 320 321 323 327 328 328 329 331 331 330 329 328 327 327 325 322
298 297 298 294 299 303 304 305 306 306 307 307 308 309 308 305 309 310 311 308 305 305 308 306 305 307 309 309 308 309 312 314 313 315 317 315 315 316 318 320 322 324 327 330 329 329 329 329 329 328 327 326 323 322
297 298 297 301 300 302 303 304 306 307 305 306 306 305 303 305 307 308 307 306 307 310 310 311 311 311 310 307 309 309 310 312 314 312 315 316 316 314 315 317 320 323 327 330 328 329 328 329 329 328 327 326 323 322
296 299 297 295 297 298 300 300 300 303 305 306 305 305 304 307 307 306 305 306 308 307 309 309 309 309 310 309 310 312 314 313 313 315 317 320 319 318 317 320 322 323 323 327 330 329 329 328 328 327 326 324 323 324
299 298 300 298 298 298 302 301 302 303 304 302 303 305 307 308 307 303 307 308 308 308 307 307 307 308 308 309 311 312 314 315 315 317 319 323 325 325 323 320 319 319 319 321 329 330 330 328 327 326 324 322 323 324
299 297 297 297 299 299 299 301 302 300 300 301 304 304 304 302 302 305 307 307 307 307 305 304 305 306 307 308 309 311 313 313 313 316 318 317 316 319 325 323 320 320 319 323 329 329 327 327 327 326 325 325 326 325
297 296 299 299 298 300 301 301 301 300 299 299 300 300 301 301 303 305 305 305 304 304 305 306 306 306 306 308 308 308 311 312 313 314 315 315 316 318 324 326 327 327 326 329 329 328 327 326 325 324 321 320 319 318
298 297 300 300 302 301 301 300 300 300 300 301 301 303 305 305 304 305 305 305 305 305 305 304 305 307 306 307 309 309 310 313 313 313 314 315 317 319 320 320 322 327 329 329 329 327 327 326 325 325 323 320 319 318
299 300 301 302 302 301 302 303 304 304 305 305 305 304 304 305 307 306 306 305 304 305 305 306 306 306 307 308 308 308 310 313 313 313 315 317 320 320 321 321 321 322 326 328 327 327 327 326 324 323 321 321 320 319
302 302 303 304 306 308 308 309 310 311 309 310 309 309 310 310 311 309 307 307 307 306 306 306 306 306 307 307 307 307 311 314 314 315 320 321 323 324 324 322 324 325 324 326 326 326 325 325 324 323 322 322 321 321
Wind_Speed
12 13 13 14 14 15 15 14 13 14 15 15 14 13 9 7 7 6 8 7 4 2 5 6 4 3 1 1 1 4 3 3 4 4 2 3 2 2 1 1 3 4 5 3 3 2 4 4 1 6 4 5 5 6
13 13 14 14 15 15 14 14 13 14 17 17 16 15 12 10 8 6 4 4 4 3 5 5 17 23 18 13 2 2 2 2 3 4 0 2 2 1 3 3 2 3 5 4 7 5 3 3 5 5 3 5 5 3
15 14 15 15 14 14 13 13 14 14 16 18 18 16 13 11 10 10 6 7 4 2 6 1 9 17 19 31 30 4 3 2 1 2 4 2 2 4 3 5 2 4 2 2 2 3 7 8 5 6 4 5 7 3
15 15 15 15 15 14 14 13 13 14 16 17 18 16 14 11 11 13 9 4 3 1 3 7 6 11 7 10 27 31 4 4 4 2 2 2 2 3 3 3 3 3 3 3 6 8 5 7 8 6 4 6 7 4
14 15 16 15 15 14 14 13 12 12 14 16 17 16 13 11 11 13 14 16 14 2 3 6 17 10 8 17 25 28 15 4 2 2 2 2 2 3 0 1 3 5 6 5 6 6 5 5 2 2 3 4 7 4
16 17 17 16 15 14 13 12 10 10 13 15 16 16 14 11 10 4 3 6 18 14 1 4 6 5 6 8 16 11 9 3 3 4 3 3 2 4 3 3 7 7 6 7 4 2 2 0 5 4 7 2 1 5
17 17 18 17 15 14 12 11 10 8 8 12 16 16 14 13 15 5 2 2 13 17 1 4 5 5 4 4 3 3 6 3 4 2 3 4 3 5 3 4 13 6 10 10 5 1 5 4 2 2 3 6 5 6
18 18 18 16 13 12 11 10 9 8 9 10 12 12 12 13 11 11 21 15 15 3 1 3 5 5 2 1 2 3 4 1 2 3 1 3 2 2 4 10 8 9 6 8 12 10 5 3 2 4 2 3 5 5
17 18 17 14 12 11 11 9 9 8 8 8 9 10 8 5 4 4 5 18 22 1 2 2 2 4 4 1 1 1 3 3 0 3 3 4 3 5 8 10 10 10 7 9 2 8 8 8 8 5 5 6 5 4
15 15 13 12 11 10 9 9 9 8 8 9 12 5 3 5 6 12 2 3 3 3 2 4 1 4 1 2 2 2 1 3 3 4 3 3 4 8 4 7 9 11 6 6 4 4 5 6 9 4 7 7 8 7
12 12 11 11 10 9 9 10 10 8 10 6 3 2 2 9 6 2 2 3 3 3 4 4 6 3 2 1 2 2 2 1 2 4 5 3 4 3 9 12 11 12 7 10 8 3 7 7 5 8 9 9 9 13
9 10 10 8 7 10 11 12 13 15 7 7 4 4 4 2 2 3 4 2 4 5 4 4 5 5 3 2 2 2 3 2 5 3 2 3 3 5 8 13 15 9 7 8 7 6 7 8 2 8 12 11 13 19
8 8 9 8 5 4 9 11 17 13 9 5 2 2 3 3 4 5 7 4 3 4 4 3 3 3 0 1 2 2 4 5 3 2 4 3 2 5 8 10 13 11 8 3 2 5 6 6 2 11 11 18 16 17
8 8 8 7 5 2 8 14 13 12 3 2 3 4 4 5 4 4 3 3 4 2 3 2 2 4 3 3 2 4 3 3 3 3 5 2 3 5 6 7 8 11 8 8 7 3 6 8 8 10 18 23 21 14
7 6 8 6 4 3 6 9 13 7 3 3 3 4 5 4 3 4 4 2 3 2 2 1 1 3 2 2 3 1 2 3 2 3 2 3 4 5 5 6 6 7 7 5 7 7 6 7 5 5 15 20 18 20
6 7 4 5 5 5 5 7 8 6 2 2 4 3 3 2 3 2 2 3 1 2 1 1 2 2 3 2 3 5 3 2 3 3 3 2 5 6 7 8 7 7 5 6 4 9 7 1 6 9 17 20 22 22
4 3 4 5 6 5 6 4 5 4 3 3 3 2 1 2 3 2 3 2 3 1 2 3 3 4 1 2 1 1 4 4 3 2 0 1 3 6 6 7 6 4 4 4 5 12 7 3 15 15 10 15 20 21
2 3 3 5 5 2 2 3 2 2 4 3 2 1 2 2 1 3 4 6 4 2 1 3 1 1 3 4 2 3 3 1 1 1 2 4 4 5 4 7 7 7 5 6 6 9 6 6 6 4 11 17 20 22
3 3 2 5 5 3 1 2 2 2 4 2 2 2 2 2 2 3 4 7 3 2 2 2 3 3 3 3 3 2 2 2 1 1 2 4 4 4 6 11 12 10 10 9 6 5 4 6 7 13 13 13 15 19
6 5 4 5 4 2 2 2 3 2 2 2 1 2 2 3 2 3 5 3 4 3 3 3 4 4 4 3 3 2 2 3 3 2 2 3 3 4 6 7 6 12 12 14 10 2 6 7 9 15 21 13 14 20
2 1 1 6 1 0 2 2 2 3 2 2 2 2 3 1 3 4 3 4 3 3 3 3 3 2 3 3 3 3 3 4 3 3 3 2 2 5 6 10 11 10 3 4 1 3 6 6 12 11 12 15 16 20
2 2 1 5 3 4 3 5 2 1 1 2 2 2 3 2 3 4 3 3 3 4 4 4 3 3 2 2 4 4 4 3 3 4 3 3 3 3 4 6 5 4 4 3 6 3 4 3 7 12 16 15 17 21
2 3 3 4 2 2 5 2 2 3 3 2 0 2 3 3 3 1 2 3 4 4 4 4 5 7 5 8 4 2 6 6 4 5 6 8 10 11 11 12 8 4 4 7 4 5 5 9 14 17 19 20 20 21
3 2 2 3 4 3 2 2 2 2 1 2 2 3 3 3 0 1 3 3 3 1 3 3 2 1 2 4 2 4 10 12 10 10 13 7 4 6 11 13 14 13 10 12 4 6 12 14 16 18 19 17 16 16
2 4 3 4 2 1 2 2 2 2 3 3 2 3 3 1 1 2 3 3 2 2 2 1 2 3 4 3 2 5 10 9 4 5 14 13 13 6 7 13 15 15 11 11 8 11 11 13 16 16 17 18 19 19
2 4 7 5 2 4 3 2 4 5 4 3 5 3 2 1 2 4 3 2 1 1 1 2 1 0 1 2 3 3 6 5 10 4 16 16 16 9 5 5 4 9 12 13 9 4 8 11 12 14 16 18 21 21
4 5 4 2 2 1 2 3 1 2 4 5 3 2 2 3 5 3 1 2 3 3 3 1 1 1 2 4 10 13 15 13 14 8 11 8 8 13 18 10 6 12 5 9 15 15 14 14 13 14 14 16 24 25
5 2 5 4 3 3 3 2 4 6 4 4 3 4 5 5 4 3 4 7 8 5 2 3 4 7 9 13 15 17 15 10 11 10 6 5 5 9 14 21 22 18 14 12 16 17 18 18 17 19 21 22 25 24
4 2 3 3 3 4 6 6 5 4 4 4 5 4 4 3 2 4 5 8 6 6 3 2 7 9 11 11 10 10 9 4 5 6 7 4 3 8 6 7 12 17 16 11 13 15 15 15 13 18 20 19 20 22
5 5 4 4 5 7 5 7 4 4 4 4 3 1 2 3 8 13 11 10 9 6 12 8 7 8 5 5 7 15 11 7 8 8 4 5 7 9 6 5 6 8 9 8 9 10 12 13 13 12 12 12 14 18
2 4 3 5 5 5 8 5 2 2 3 4 4 5 10 6 6 18 24 27 26 20 12 6 9 13 12 9 6 4 5 3 9 12 13 18 10 8 12 10 6 8 10 11 10 11 12 14 16 18 18 19 21 22
4 8 5 5 4 4 4 4 4 4 4 4 6 4 3 3 7 5 16 23 17 8 19 20 15 16 24 24 21 21 19 13 13 20 16 13 14 14 15 16 15 15 16 15 13 13 14 15 16 15 16 19 20 22
4 5 5 4 3 4 3 3 4 4 3 4 6 6 8 7 8 2 6 20 26 25 25 25 21 25 27 29 26 22 19 12 15 17 13 14 19 22 20 17 14 16 19 19 16 14 14 15 16 14 14 16 18 20
Wind_Direction
295 294 292 291 292 288 283 276 270 256 242 236 237 244 248 264 248 276 290 274 205 242 271 225 231 212 340 132 204 283 4 342 10 57 117 188 175 226 80 273 205 172 145 188 115 133 271 167 151 170 234 289 279 305
305 302 300 298 296 292 285 276 268 264 241 235 230 237 239 252 231 246 277 186 195 213 255 271 264 254 247 231 165 321 189 276 208 92 250 117 161 86 162 218 53 229 191 185 183 212 223 193 234 271 232 255 288 303
302 304 303 300 296 292 287 279 272 266 246 232 228 231 232 245 228 226 257 282 274 285 288 331 240 265 249 232 224 186 271 205 189 150 153 179 179 125 187 241 180 249 164 197 11 246 236 250 232 235 224 243 287 233
302 305 305 300 295 292 285 278 274 269 245 230 226 226 230 240 226 225 242 252 244 246 275 279 310 269 266 228 215 211 147 95 97 93 110 150 155 172 214 238 196 197 122 194 265 279 264 258 244 258 297 303 294 223
302 305 304 303 300 294 289 280 277 268 242 230 223 219 222 237 227 234 256 257 237 180 279 287 303 282 285 225 198 203 199 136 137 128 129 226 157 128 324 30 257 187 198 173 221 225 156 240 271 306 290 309 312 286
302 303 301 297 296 293 287 280 273 267 240 228 219 212 217 227 213 218 296 243 227 203 276 299 300 294 318 183 178 182 182 131 162 167 213 223 218 132 159 215 255 218 208 206 277 249 260 40 253 287 313 18 311 316
303 304 303 297 289 287 280 279 264 252 237 223 214 215 214 209 202 197 207 320 168 171 199 301 304 276 296 132 115 114 158 184 150 199 217 174 205 145 153 217 255 234 234 241 199 38 303 217 170 143 296 313 74 38
306 309 305 297 284 278 270 267 259 239 231 220 213 210 203 205 222 260 250 222 159 183 133 267 273 326 354 207 130 153 125 126 209 200 118 160 89 122 239 244 263 259 243 242 223 195 201 275 155 112 79 85 34 54
312 311 300 288 278 270 259 248 246 230 220 212 198 184 159 186 208 243 201 179 197 1 272 200 245 268 357 336 179 78 147 140 232 197 223 123 171 219 233 239 250 248 204 250 200 170 197 231 248 188 122 102 112 95
318 319 303 291 281 257 241 236 234 219 210 194 155 166 207 206 164 127 170 101 165 235 234 232 220 261 30 6 337 95 330 148 166 240 109 163 245 242 318 301 290 288 238 180 154 208 190 247 224 217 164 170 161 155
319 327 309 289 268 248 230 224 220 190 179 172 187 211 134 134 149 213 184 168 171 244 207 232 194 207 259 191 257 194 185 121 159 250 155 226 271 292 328 310 305 297 240 211 227 212 190 213 231 135 164 173 161 148
323 326 324 316 270 246 232 218 202 185 185 190 166 143 142 152 174 176 200 145 193 225 198 192 210 193 264 129 138 233 172 95 229 142 113 254 260 297 314 317 320 306 264 232 197 219 229 241 137 149 156 161 155 159
330 336 330 323 314 249 210 205 198 187 163 156 192 184 201 153 185 214 181 214 208 202 198 187 219 195 338 67 216 169 174 215 102 115 219 223 272 298 302 320 329 352 0 324 226 164 195 258 174 155 174 175 166 154
317 332 330 331 316 249 170 181 177 172 176 185 170 221 223 177 229 204 211 210 234 189 169 165 190 180 187 157 199 186 214 137 187 180 234 226 215 304 313 310 331 340 0 21 7 340 229 222 221 209 180 177 157 154
306 317 321 310 318 278 214 197 195 186 205 195 176 223 219 252 275 251 240 262 254 234 159 139 207 142 169 207 202 124 161 216 199 210 236 276 324 316 311 312 312 319 327 2 20 355 292 226 209 168 161 160 159 150
286 298 279 308 309 271 216 188 176 196 218 234 204 239 237 322 276 309 304 279 291 296 130 66 159 170 205 174 147 215 122 189 216 216 235 312 334 327 323 326 313 299 280 310 43 25 358 299 130 149 146 154 155 159
271 248 305 310 309 276 202 185 184 207 220 211 234 230 238 257 250 293 316 291 331 254 157 121 147 219 160 83 204 178 172 189 207 242 304 245 271 292 307 305 309 330 343 274 4 27 24 115 134 132 149 155 157 163
242 262 301 334 329 236 237 205 222 211 239 228 226 226 180 210 273 296 323 335 332 354 140 167 133 249 167 147 240 228 238 318 1 310 296 289 287 301 301 299 308 313 310 285 35 13 4 153 128 125 143 145 138 145
282 260 313 343 346 322 281 218 195 240 230 253 230 234 234 209 226 226 271 288 285 291 305 69 219 208 207 203 194 207 197 157 155 294 277 286 314 325 319 324 322 331 328 340 341 350 307 174 126 143 138 169 154 152
276 251 256 297 336 327 265 226 191 230 233 233 238 240 214 226 185 214 208 223 295 326 300 207 198 205 177 207 194 165 169 158 131 44 323 322 332 337 325 317 313 317 310 309 342 150 156 105 130 160 155 177 178 168
247 260 233 195 263 278 272 287 215 219 236 222 236 202 236 212 226 207 216 168 184 234 248 218 244 185 176 149 183 175 148 158 193 180 216 296 320 324 321 317 337 323 301 310 256 195 152 140 146 143 164 174 196 172
216 191 207 202 235 214 241 231 245 256 245 253 272 231 248 242 223 214 153 171 216 212 191 180 211 197 234 251 237 217 258 254 235 244 228 243 293 313 309 310 330 308 330 350 287 306 330 22 119 154 161 171 177 168
233 205 231 210 253 214 258 155 205 209 207 229 278 249 231 231 231 118 209 216 243 217 188 190 211 200 209 249 252 247 192 203 244 256 250 238 257 264 277 288 288 279 310 331 295 236 186 207 204 174 168 174 175 167
226 237 226 216 191 257 322 247 222 234 263 242 222 257 244 226 174 179 244 232 239 294 176 197 159 199 334 297 277 259 257 220 230 254 245 213 241 259 258 280 294 298 293 289 265 211 210 199 193 175 173 174 173 164
70 274 127 271 236 227 242 242 209 185 234 213 237 257 254 67 199 249 232 267 341 20 23 1 179 195 209 250 267 266 294 225 198 213 243 230 244 269 267 268 273 280 282 258 211 177 171 177 181 184 179 176 171 169
209 233 171 207 222 183 216 236 205 206 186 223 231 263 7 169 226 244 232 207 189 156 131 101 121 40 348 211 275 284 287 300 237 198 252 248 240 210 222 233 253 272 247 240 249 208 175 177 177 182 179 183 176 166
244 249 228 226 186 156 271 254 249 186 205 215 223 207 175 215 236 243 204 209 162 210 193 152 179 220 249 271 294 309 301 277 232 234 251 236 248 238 226 201 207 235 228 234 226 221 210 189 178 185 178 181 184 182
232 222 192 200 197 203 229 236 210 210 220 207 139 193 197 206 235 198 192 190 181 175 221 301 314 295 288 310 320 328 316 278 229 247 258 234 271 267 249 237 240 248 254 250 226 215 216 215 189 182 183 186 189 193
234 226 148 204 217 222 214 204 220 225 196 161 175 211 232 230 222 170 199 194 200 207 213 285 313 328 311 317 316 340 349 271 158 200 225 242 305 284 272 245 231 235 243 240 221 215 213 212 200 198 197 193 195 198
242 175 189 204 197 218 227 196 218 217 192 195 189 331 293 260 241 247 223 203 189 208 239 259 284 293 277 303 310 320 325 335 238 209 204 227 232 265 263 234 233 226 219 212 204 206 205 210 207 197 193 192 193 195
191 165 221 217 239 229 223 218 234 180 201 214 207 222 250 262 265 242 237 241 242 239 224 223 248 257 245 247 245 271 291 310 346 331 280 272 275 251 257 260 250 228 219 215 213 211 204 203 203 203 202 197 195 191
191 202 198 222 245 251 145 188 208 214 219 207 240 204 232 238 259 254 238 226 219 226 234 233 229 233 237 246 255 264 261 279 308 321 305 269 259 257 254 258 256 247 226 214 212 211 207 211 203 202 203 202 200 197
217 195 219 271 274 248 193 168 237 258 220 238 243 245 242 242 248 261 244 231 223 229 233 236 225 220 225 233 243 256 250 267 296 306 277 256 261 261 258 262 257 238 216 206 199 198 199 202 200 194 195 194 189 183